TimeEST,TemperatureF,Dew PointF,Humidity,Sea Level PressureIn,VisibilityMPH,Wind Direction,Wind SpeedMPH,Gust SpeedMPH,PrecipitationIn,Events,Conditions,WindDirDegrees,DateUTC
12:53 AM,37.9,34.0,86,30.33,10.0,Calm,Calm,-,N/A,,Mostly Cloudy,0,2013-01-08 05:53:00
1:53 AM,41.0,36.0,82,30.31,10.0,ENE,5.8,-,N/A,,Mostly Cloudy,60,2013-01-08 06:53:00
2:53 AM,42.1,36.0,79,30.30,10.0,NE,3.5,-,N/A,,Overcast,40,2013-01-08 07:53:00
3:53 AM,42.1,36.0,79,30.30,10.0,ENE,3.5,-,N/A,,Overcast,70,2013-01-08 08:53:00
4:53 AM,44.1,35.1,71,30.30,10.0,East,5.8,-,N/A,,Overcast,80,2013-01-08 09:53:00
5:53 AM,44.1,34.0,68,30.32,10.0,East,6.9,-,N/A,,Overcast,80,2013-01-08 10:53:00
6:53 AM,43.0,34.0,71,30.32,10.0,East,6.9,-,N/A,,Partly Cloudy,80,2013-01-08 11:53:00
7:53 AM,43.0,35.1,74,30.34,10.0,East,6.9,-,N/A,,Mostly Cloudy,80,2013-01-08 12:53:00
8:53 AM,46.0,35.1,66,30.37,10.0,NE,5.8,-,N/A,,Overcast,50,2013-01-08 13:53:00
9:30 AM,46.4,35.6,66,30.38,10.0,ENE,5.8,-,N/A,,Overcast,60,2013-01-08 14:30:00
9:53 AM,46.9,37.0,68,30.38,10.0,East,9.2,-,N/A,,Overcast,90,2013-01-08 14:53:00
10:27 AM,48.2,39.2,71,30.39,10.0,East,8.1,-,N/A,,Overcast,80,2013-01-08 15:27:00
10:50 AM,50.0,39.2,66,30.38,10.0,ENE,8.1,-,N/A,,Overcast,70,2013-01-08 15:50:00
10:53 AM,50.0,39.9,68,30.38,10.0,East,8.1,-,N/A,,Overcast,80,2013-01-08 15:53:00
11:53 AM,53.1,41.0,64,30.37,10.0,ENE,5.8,-,N/A,,Overcast,60,2013-01-08 16:53:00
12:00 PM,53.6,41.0,62,30.36,10.0,ENE,3.5,-,N/A,,Overcast,70,2013-01-08 17:00:00
12:53 PM,57.0,43.0,59,30.33,10.0,ENE,6.9,-,N/A,,Overcast,70,2013-01-08 17:53:00
1:09 PM,57.2,42.8,59,30.33,10.0,ENE,5.8,-,N/A,,Overcast,70,2013-01-08 18:09:00
1:53 PM,59.0,45.0,60,30.30,10.0,Variable,5.8,-,N/A,,Overcast,0,2013-01-08 18:53:00
2:45 PM,60.8,44.6,55,30.29,10.0,ENE,5.8,-,N/A,,Overcast,70,2013-01-08 19:45:00
2:53 PM,60.1,46.0,60,30.29,10.0,NE,5.8,-,N/A,,Overcast,40,2013-01-08 19:53:00
3:53 PM,62.1,46.0,56,30.29,9.0,NNE,5.8,-,N/A,,Overcast,30,2013-01-08 20:53:00
4:53 PM,59.0,46.0,62,30.31,10.0,NNE,8.1,-,N/A,,Overcast,30,2013-01-08 21:53:00
5:53 PM,57.9,46.9,67,30.31,10.0,ENE,6.9,-,N/A,,Overcast,60,2013-01-08 22:53:00
6:53 PM,57.0,46.9,69,30.32,10.0,ENE,5.8,-,N/A,,Overcast,60,2013-01-08 23:53:00
7:53 PM,55.9,46.9,72,30.32,10.0,East,8.1,-,N/A,,Overcast,80,2013-01-09 00:53:00
8:53 PM,55.0,45.0,69,30.32,10.0,East,8.1,-,N/A,,Overcast,80,2013-01-09 01:53:00
9:33 PM,55.4,44.6,67,30.34,10.0,East,5.8,-,N/A,,Overcast,90,2013-01-09 02:33:00
9:53 PM,55.0,45.0,69,30.34,10.0,East,4.6,-,N/A,,Overcast,80,2013-01-09 02:53:00
10:53 PM,54.0,45.0,72,30.32,10.0,East,5.8,-,N/A,,Overcast,80,2013-01-09 03:53:00
11:50 PM,53.6,44.6,72,30.32,10.0,East,6.9,-,N/A,,Scattered Clouds,80,2013-01-09 04:50:00
11:53 PM,53.1,45.0,74,30.32,10.0,ENE,5.8,-,N/A,,Partly Cloudy,70,2013-01-09 04:53:00